Tracking 35331 objects as of 16-Sep-2026
HD Live streaming from Space Station
objects crossing your sky now

COSMOS 541 DEB


COSMOS 541 DEB is no longer on orbit


NORAD ID: 6342
Int'l Code: 1972-105F
Launch date: December 27, 1972
Source: Commonwealth of Independent States (former USSR) (CIS)
Launch site: PLESETSK MISSILE AND SPACE COMPLEX (PKMTR)
Decay date: 1973-01-15

Note: This is SATELLITE DEBRIS
Your satellite tracking list
Your tracking list is empty




NASA's NSSDC Master Catalog

Two Line Element Set (TLE):
1 06342U 72105  F 73015.03483172  .08859297 +00000-0 +00000-0 0  9992
2 06342 081.2938 254.1700 0027690 318.2437 041.6742 16.17191738000838
Source of the keplerian elements: AFSPC